Tracking 25744 objects as of 25-Jun-2022
HD Live streaming from Space Station
objects crossing your sky now

RADUGA 4

Track RADUGA 4 now!
RADUGA 4 is classified as:


NORAD ID: 10987
Int'l Code: 1978-073A
Perigee: 35,768.2 km
Apogee: 35,829.9 km
Inclination: 8.4 °
Period: 1,436.4 minutes
Semi major axis: 42170 km
RCS: 1 m2 (large)
Launch date: July 18, 1978
Source: Commonwealth of Independent States (former USSR) (CIS)
Launch site: TYURATAM MISSILE AND SPACE COMPLEX (TTMTR)
aabbcc
Your satellite tracking list
Your tracking list is empty




NASA's NSSDC Master Catalog

Two Line Element Set (TLE):
1 10987U 78073A   22175.59544120  .00000156  00000-0  00000+0 0  9998
2 10987   8.4259 296.4717 0007307   6.1098 223.5233  1.00252829105018
Source of the keplerian elements: AFSPC